Terug naar catalogus

COSMOS 445

ActiefMilitairLEO
NORAD 5548·PAYLOAD·🇷🇺 Russia

Gelanceerd Oct 13, 1971 vanaf Plesetsk Cosmodrome

Loading…

Volgende Passages (komende 24 uur)

TLE

VersSource: Space-Track

Epoch: Sep 14, 2026, 04:32 UTC

1 05548U 71086B   26257.18948981  .00000014  00000-0  17077-3 0  9994
2 05548  74.0294 168.0342 0102575 104.4607  47.5047 12.58230145522418

Volg COSMOS 445 in realtime met AllMySat

Download on the App Store